TimeEDT,TemperatureF,Dew PointF,Humidity,Sea Level PressureIn,VisibilityMPH,Wind Direction,Wind SpeedMPH,Gust SpeedMPH,PrecipitationIn,Events,Conditions,WindDirDegrees,DateUTC
12:15 AM,65.3,64.8,98,30.22,10.0,Calm,Calm,-,N/A,,Overcast,0,2013-08-19 04:15:00
12:35 AM,64.9,64.6,99,30.21,10.0,Calm,Calm,-,N/A,,Overcast,0,2013-08-19 04:35:00
12:55 AM,65.3,64.4,97,30.21,10.0,Calm,Calm,-,N/A,,Overcast,0,2013-08-19 04:55:00
1:15 AM,64.8,64.6,99,30.22,7.0,Calm,Calm,-,N/A,Rain,Light Rain,0,2013-08-19 05:15:00
1:35 AM,64.9,64.6,99,30.21,10.0,Calm,Calm,-,N/A,,Light Drizzle,0,2013-08-19 05:35:00
1:55 AM,64.8,64.6,99,30.22,5.0,Calm,Calm,-,N/A,Rain,Rain,0,2013-08-19 05:55:00
2:15 AM,64.8,64.6,99,30.21,4.0,Calm,Calm,-,N/A,Rain,Rain,0,2013-08-19 06:15:00
2:35 AM,64.4,64.4,100,30.21,3.0,Calm,Calm,-,N/A,Rain,Rain,0,2013-08-19 06:35:00
2:55 AM,64.4,64.4,100,30.20,4.0,Calm,Calm,-,N/A,Rain,Rain,0,2013-08-19 06:55:00
3:15 AM,64.4,64.2,99,30.20,3.0,NE,4.6,-,N/A,Rain,Rain,50,2013-08-19 07:15:00
3:35 AM,64.4,63.9,98,30.19,3.0,Calm,Calm,-,N/A,Rain,Rain,0,2013-08-19 07:35:00
3:55 AM,63.9,63.7,99,30.20,4.0,Calm,Calm,-,N/A,Rain,Rain,0,2013-08-19 07:55:00
4:15 AM,63.9,63.9,100,30.19,5.0,Calm,Calm,-,N/A,Rain,Light Rain,0,2013-08-19 08:15:00
4:35 AM,64.0,63.9,99,30.18,4.0,Calm,Calm,-,N/A,Rain,Heavy Rain,0,2013-08-19 08:35:00
4:55 AM,64.0,63.9,99,30.18,7.0,Calm,Calm,-,N/A,Rain,Light Rain,0,2013-08-19 08:55:00
5:15 AM,64.0,63.9,99,30.18,7.0,Calm,Calm,-,N/A,Rain,Light Rain,0,2013-08-19 09:15:00
5:35 AM,63.9,63.5,99,30.17,7.0,Calm,Calm,-,N/A,Rain,Light Rain,0,2013-08-19 09:35:00
5:55 AM,63.9,63.5,99,30.17,10.0,Calm,Calm,-,N/A,Rain,Light Rain,0,2013-08-19 09:55:00
6:15 AM,63.9,63.5,99,30.17,10.0,Calm,Calm,-,N/A,Rain,Light Rain,0,2013-08-19 10:15:00
6:35 AM,63.9,63.7,99,30.17,10.0,Calm,Calm,-,N/A,,Overcast,0,2013-08-19 10:35:00
6:55 AM,64.0,63.7,99,30.18,10.0,Calm,Calm,-,N/A,,Overcast,0,2013-08-19 10:55:00
7:15 AM,64.0,63.7,99,30.18,10.0,Calm,Calm,-,N/A,,Overcast,0,2013-08-19 11:15:00
7:35 AM,63.9,63.7,99,30.18,10.0,Calm,Calm,-,N/A,,Overcast,0,2013-08-19 11:35:00
7:55 AM,64.4,63.9,98,30.18,10.0,Calm,Calm,-,N/A,,Overcast,0,2013-08-19 11:55:00
8:15 AM,64.8,64.4,99,30.18,10.0,East,3.5,-,N/A,,Light Drizzle,90,2013-08-19 12:15:00
8:35 AM,65.5,64.2,96,30.18,10.0,Calm,Calm,-,N/A,,Overcast,0,2013-08-19 12:35:00
8:55 AM,66.0,64.2,94,30.18,10.0,Calm,Calm,-,N/A,,Light Drizzle,0,2013-08-19 12:55:00
9:15 AM,66.2,64.6,94,30.18,10.0,Calm,Calm,-,N/A,Rain,Light Rain,0,2013-08-19 13:15:00
9:35 AM,66.6,64.9,95,30.18,10.0,Calm,Calm,-,N/A,Rain,Light Rain,0,2013-08-19 13:35:00
9:55 AM,66.7,65.3,95,30.19,10.0,Calm,Calm,-,N/A,Rain,Light Rain,0,2013-08-19 13:55:00
10:15 AM,66.6,65.7,97,30.19,10.0,Calm,Calm,-,N/A,Rain,Light Rain,0,2013-08-19 14:15:00
10:35 AM,67.8,66.4,95,30.20,7.0,Calm,Calm,-,N/A,,Overcast,0,2013-08-19 14:35:00
10:55 AM,68.2,66.4,94,30.20,10.0,Calm,Calm,-,N/A,,Overcast,0,2013-08-19 14:55:00
11:15 AM,68.9,66.4,92,30.20,10.0,Calm,Calm,-,N/A,,Overcast,0,2013-08-19 15:15:00
11:35 AM,68.7,66.0,91,30.20,10.0,Calm,Calm,-,N/A,,Light Drizzle,0,2013-08-19 15:35:00
11:55 AM,69.3,65.8,89,30.20,10.0,Calm,Calm,-,N/A,,Overcast,0,2013-08-19 15:55:00
12:15 PM,70.0,65.8,87,30.20,10.0,Calm,Calm,-,N/A,,Overcast,0,2013-08-19 16:15:00
12:35 PM,70.3,66.6,88,30.19,10.0,Calm,Calm,-,N/A,,Overcast,0,2013-08-19 16:35:00
12:55 PM,72.0,66.9,84,30.18,10.0,Calm,Calm,-,N/A,,Overcast,0,2013-08-19 16:55:00
1:15 PM,72.5,67.6,85,30.18,10.0,Calm,Calm,-,N/A,,Overcast,0,2013-08-19 17:15:00
1:35 PM,72.5,68.2,86,30.18,10.0,West,3.5,-,N/A,,Overcast,260,2013-08-19 17:35:00
1:55 PM,73.9,68.7,84,30.17,10.0,Calm,Calm,-,N/A,,Overcast,0,2013-08-19 17:55:00
2:15 PM,74.7,68.0,80,30.17,10.0,Calm,Calm,-,N/A,,Overcast,0,2013-08-19 18:15:00
2:35 PM,76.3,69.3,79,30.16,10.0,West,4.6,-,N/A,,Overcast,270,2013-08-19 18:35:00
2:55 PM,75.6,67.8,77,30.16,10.0,WSW,3.5,-,N/A,,Overcast,250,2013-08-19 18:55:00
3:15 PM,75.2,68.4,79,30.15,10.0,WNW,4.6,-,N/A,,Overcast,290,2013-08-19 19:15:00
3:35 PM,75.9,68.5,78,30.14,10.0,Calm,Calm,-,N/A,,Mostly Cloudy,0,2013-08-19 19:35:00
3:55 PM,76.6,68.9,77,30.14,10.0,Calm,Calm,-,N/A,,Scattered Clouds,0,2013-08-19 19:55:00
4:15 PM,75.7,68.5,78,30.13,10.0,Calm,Calm,-,N/A,,Mostly Cloudy,0,2013-08-19 20:15:00
4:35 PM,75.2,68.4,79,30.12,10.0,West,3.5,-,N/A,,Mostly Cloudy,260,2013-08-19 20:35:00
4:55 PM,72.7,70.2,92,30.12,7.0,WNW,6.9,-,N/A,,Drizzle,290,2013-08-19 20:55:00
5:15 PM,72.7,69.6,90,30.12,10.0,NW,5.8,-,N/A,,Overcast,320,2013-08-19 21:15:00
5:35 PM,73.8,69.1,85,30.12,10.0,Calm,Calm,-,N/A,,Overcast,0,2013-08-19 21:35:00
5:55 PM,73.4,68.7,85,30.12,10.0,Calm,Calm,-,N/A,,Mostly Cloudy,0,2013-08-19 21:55:00
6:15 PM,74.1,68.7,83,30.12,10.0,Calm,Calm,-,N/A,,Mostly Cloudy,0,2013-08-19 22:15:00
6:35 PM,74.3,69.1,84,30.12,10.0,Calm,Calm,-,N/A,,Overcast,0,2013-08-19 22:35:00
6:55 PM,73.9,69.4,86,30.12,10.0,Calm,Calm,-,N/A,,Mostly Cloudy,0,2013-08-19 22:55:00
7:15 PM,74.1,69.1,84,30.12,10.0,Calm,Calm,-,0.01,,Mostly Cloudy,0,2013-08-19 23:15:00
7:35 PM,73.9,69.8,87,30.13,10.0,Calm,Calm,-,0.01,,Overcast,0,2013-08-19 23:35:00
7:55 PM,73.0,70.2,91,30.13,10.0,Calm,Calm,-,0.01,,Overcast,0,2013-08-19 23:55:00
8:15 PM,72.3,70.9,95,30.13,10.0,Calm,Calm,-,N/A,,Mostly Cloudy,0,2013-08-20 00:15:00
8:35 PM,70.7,69.4,96,30.13,10.0,NW,3.5,-,N/A,,Mostly Cloudy,320,2013-08-20 00:35:00
8:55 PM,69.8,69.1,98,30.14,10.0,Calm,Calm,-,N/A,,Scattered Clouds,0,2013-08-20 00:55:00
9:15 PM,69.1,68.5,98,30.15,10.0,Calm,Calm,-,N/A,,Scattered Clouds,0,2013-08-20 01:15:00
9:35 PM,68.9,68.4,98,30.15,10.0,Calm,Calm,-,N/A,,Mostly Cloudy,0,2013-08-20 01:35:00
9:55 PM,68.4,68.0,99,30.16,10.0,Calm,Calm,-,N/A,,Overcast,0,2013-08-20 01:55:00
10:15 PM,68.9,68.2,98,30.16,10.0,Calm,Calm,-,N/A,,Overcast,0,2013-08-20 02:15:00
10:35 PM,68.4,68.2,99,30.17,10.0,Calm,Calm,-,N/A,,Overcast,0,2013-08-20 02:35:00
10:55 PM,68.4,68.2,99,30.17,10.0,Calm,Calm,-,N/A,,Overcast,0,2013-08-20 02:55:00
11:15 PM,68.2,68.0,99,30.18,10.0,Calm,Calm,-,N/A,,Overcast,0,2013-08-20 03:15:00
11:35 PM,68.4,68.2,99,30.18,10.0,Calm,Calm,-,N/A,,Overcast,0,2013-08-20 03:35:00
11:55 PM,68.4,68.2,99,30.18,3.0,Calm,Calm,-,N/A,,Overcast,0,2013-08-20 03:55:00